Powrót do katalogu

STARLINK-30270

AktywnyŁącznośćVLEO
NORAD 57530·PAYLOAD·🇺🇸 United States

Wystrzelony Aug 8, 2023 z Vandenberg Space Force Base

Loading…

Następne Przeloty (najbliższe 24 godziny)

TLE

ŚwieżeSource: CelesTrak SupGP

Epoka: Sep 14, 2026, 20:45 UTC

1 57530C 23115K   26257.86506944  .00044544  00000+0  16133-2 0  2579
2 57530  43.0041  12.9575 0001355 275.1461 193.2857 15.27557235    11

Śledź STARLINK-30270 w czasie rzeczywistym z AllMySat

Download on the App Store